| time (UTC) | temp F | wind direction | speed knots | gust knots | rain 1hr in | rain 24hr in | rain mn in | humidity % | barometer mb |
| 20260507171923 | 85 | 198 | 0.0 | 0.0 | 0.00 | 0.00 | 0.00 | 83 | 1007.9 |
| 20260507171423 | 85 | 198 | 0.0 | 0.0 | 0.00 | 0.00 | 0.00 | 83 | 1007.9 |
| 20260507170923 | 85 | 198 | 0.0 | 0.0 | 0.00 | 0.00 | 0.00 | 84 | 1007.9 |
| 20260507165923 | 85 | 198 | 0.0 | 0.0 | 0.00 | 0.00 | 0.00 | 84 | 1007.8 |
| 20260507164423 | 85 | 196 | 0.0 | 0.0 | 0.00 | 0.00 | 0.00 | 84 | 1008.2 |
| 20260507163923 | 85 | 198 | 0.0 | 0.0 | 0.00 | 0.00 | 0.00 | 84 | 1008.3 |
| 20260507163423 | 85 | 198 | 0.0 | 0.0 | 0.00 | 0.00 | 0.00 | 83 | 1008.4 |
| 20260507162423 | 85 | 196 | 0.0 | 0.0 | 0.00 | 0.00 | 0.00 | 83 | 1008.5 |
| 20260507161923 | 85 | 196 | 0.9 | 0.0 | 0.00 | 0.00 | 0.00 | 83 | 1008.5 |
| 20260507161423 | 85 | 196 | 0.9 | 0.0 | 0.00 | 0.00 | 0.00 | 83 | 1008.6 |
| 20260507160423 | 85 | 211 | 0.0 | 0.0 | 0.00 | 0.00 | 0.00 | 82 | 1008.8 |
| 20260507155923 | 85 | 211 | 0.0 | 0.0 | 0.00 | 0.00 | 0.00 | 82 | 1008.8 |
| 20260507155423 | 85 | 211 | 0.9 | 0.0 | 0.00 | 0.00 | 0.00 | 82 | 1008.8 |
| 20260507154424 | 85 | 206 | 0.0 | 0.0 | 0.00 | 0.00 | 0.00 | 82 | 1009.0 |
| 20260507153923 | 85 | 206 | 1.7 | 0.0 | 0.00 | 0.00 | 0.00 | 81 | 1009.0 |
| 20260507152923 | 85 | 192 | 0.9 | 0.0 | 0.00 | 0.00 | 0.00 | 81 | 1009.2 |
| 20260507152423 | 86 | 198 | 2.6 | 0.0 | 0.00 | 0.00 | 0.00 | 81 | 1009.2 |
| 20260507151923 | 85 | 198 | 2.6 | 0.0 | 0.00 | 0.00 | 0.00 | 81 | 1009.2 |
| 20260507150923 | 85 | 165 | 4.3 | 0.0 | 0.00 | 0.00 | 0.00 | 81 | 1009.5 |
| 20260507150423 | 85 | 179 | 1.7 | 0.0 | 0.00 | 0.00 | 0.00 | 81 | 1009.5 |
| 20260507145923 | 85 | 179 | 2.6 | 0.0 | 0.00 | 0.00 | 0.00 | 81 | 1009.4 |
| 20260507144923 | 85 | 160 | 3.5 | 0.0 | 0.00 | 0.00 | 0.00 | 82 | 1009.3 |
| 20260507144423 | 85 | 184 | 1.7 | 0.0 | 0.00 | 0.00 | 0.00 | 82 | 1009.2 |
| 20260507143923 | 85 | 184 | 2.6 | 0.0 | 0.00 | 0.00 | 0.00 | 82 | 1009.1 |
| 20260507142923 | 85 | 161 | 5.2 | 0.0 | 0.00 | 0.00 | 0.00 | 83 | 1009.0 |
| 20260507141923 | 85 | 169 | 4.3 | 0.0 | 0.00 | 0.00 | 0.00 | 83 | 1009.0 |
| 20260507140923 | 85 | 155 | 6.1 | 0.0 | 0.00 | 0.00 | 0.00 | 84 | 1009.0 |
| 20260507135923 | 85 | 180 | 6.1 | 0.0 | 0.00 | 0.00 | 0.00 | 84 | 1008.8 |
| 20260507134923 | 85 | 186 | 7.0 | 0.0 | 0.00 | 0.00 | 0.00 | 85 | 1008.5 |
| 20260507133923 | 85 | 161 | 5.2 | 0.0 | 0.00 | 0.00 | 0.00 | 85 | 1008.1 |
| 20260507132923 | 85 | 195 | 8.7 | 0.0 | 0.00 | 0.00 | 0.00 | 84 | 1007.8 |
| 20260507132424 | 85 | 196 | 4.3 | 0.0 | 0.00 | 0.00 | 0.00 | 84 | 1007.6 |
| 20260507131423 | 85 | 180 | 6.1 | 0.0 | 0.00 | 0.00 | 0.00 | 84 | 1007.4 |
| 20260507130423 | 86 | 180 | 5.2 | 0.0 | 0.00 | 0.00 | 0.00 | 84 | 1007.2 |
| 20260507125923 | 86 | 175 | 6.1 | 0.0 | 0.00 | 0.00 | 0.00 | 84 | 1007.1 |
| 20260507125423 | 86 | 188 | 5.2 | 0.0 | 0.00 | 0.00 | 0.00 | 84 | 1006.9 |
| 20260507124923 | 86 | 190 | 5.2 | 0.0 | 0.00 | 0.00 | 0.00 | 84 | 1006.8 |
| 20260507124423 | 86 | 192 | 5.2 | 0.0 | 0.00 | 0.00 | 0.00 | 84 | 1006.8 |
| 20260507123423 | 86 | 184 | 5.2 | 0.0 | 0.00 | 0.00 | 0.00 | 83 | 1006.5 |
| 20260507122423 | 86 | 182 | 6.1 | 0.0 | 0.00 | 0.00 | 0.00 | 84 | 1006.4 |
| 20260507121923 | 86 | 137 | 4.3 | 0.0 | 0.00 | 0.00 | 0.00 | 84 | 1006.2 |
| 20260507121423 | 86 | 136 | 6.1 | 0.0 | 0.00 | 0.00 | 0.00 | 84 | 1006.1 |
| 20260507120423 | 86 | 155 | 4.3 | 0.0 | 0.00 | 0.00 | 0.00 | 84 | 1006.0 |
| 20260507115923 | 86 | 164 | 5.2 | 0.0 | 0.00 | 0.00 | 0.00 | 83 | 1006.0 |
| 20260507114923 | 86 | 172 | 7.0 | 0.0 | 0.00 | 0.00 | 0.00 | 83 | 1005.8 |
| 20260507113923 | 87 | 157 | 6.1 | 0.0 | 0.00 | 0.00 | 0.00 | 83 | 1005.7 |
| 20260507112923 | 87 | 153 | 7.8 | 0.0 | 0.00 | 0.00 | 0.00 | 81 | 1005.7 |
| 20260507111923 | 87 | 155 | 6.1 | 0.0 | 0.00 | 0.00 | 0.00 | 81 | 1005.8 |
| 20260507110423 | 88 | 155 | 7.0 | 0.0 | 0.00 | 0.00 | 0.00 | 79 | 1005.6 |